Hourly Weather Perth

Today, 25 September, Friday

Time Temperature Precipitation Wind Pressure Humidity
00:00 +20°C° 0 mm 8 mps 759 mmHg 43%
01:00 +18°C° 0 mm 9 mps 759 mmHg 47%
02:00 +17°C° 0 mm 8 mps 759 mmHg 50%
03:00 +17°C° 0 mm 8 mps 759 mmHg 52%
04:00 +16°C° 0 mm 8 mps 759 mmHg 53%
05:00 +16°C° 0 mm 8 mps 759 mmHg 55%
06:00 +16°C° 0 mm 8 mps 759 mmHg 55%
07:00 +16°C° 0 mm 7 mps 759 mmHg 55%
08:00 +16°C° 0 mm 6 mps 759 mmHg 58%
09:00 +19°C° 0 mm 5 mps 759 mmHg 54%
10:00 +20°C° 0 mm 5 mps 759 mmHg 50%
11:00 +22°C° 0 mm 5 mps 759 mmHg 46%
12:00 +22°C° 0 mm 4 mps 758 mmHg 53%
13:00 +22°C° 0 mm 4 mps 758 mmHg 59%
14:00 +22°C° 0 mm 3 mps 757 mmHg 64%
15:00 +22°C° 0.1 mm 3 mps 757 mmHg 64%
16:00 +22°C° 0.1 mm 3 mps 757 mmHg 65%
17:00 +21°C° 0.1 mm 3 mps 757 mmHg 66%
18:00 +20°C° 0 mm 3 mps 757 mmHg 71%
19:00 +19°C° 0 mm 2 mps 758 mmHg 77%
20:00 +19°C° 0 mm 1 mps 758 mmHg 82%
21:00 +18°C° 0.1 mm 2 mps 758 mmHg 84%
22:00 +17°C° 0.1 mm 2 mps 758 mmHg 85%
23:00 +17°C° 0.1 mm 2 mps 758 mmHg 86%

Tomorrow, 26 September, Saturday

Time Temperature Precipitation Wind Pressure Humidity
00:00 +17°C° 0.1 mm 2 mps 758 mmHg 85%
01:00 +17°C° 0.1 mm 2 mps 757 mmHg 84%
02:00 +16°C° 0.1 mm 2 mps 757 mmHg 82%
03:00 +16°C° 0 mm 2 mps 757 mmHg 82%
04:00 +16°C° 0 mm 2 mps 757 mmHg 82%
05:00 +15°C° 0 mm 2 mps 758 mmHg 81%
06:00 +16°C° 0.1 mm 2 mps 758 mmHg 78%
07:00 +17°C° 0.1 mm 3 mps 758 mmHg 75%
08:00 +18°C° 0.1 mm 3 mps 758 mmHg 71%
09:00 +19°C° 0.1 mm 3 mps 758 mmHg 63%
10:00 +20°C° 0.1 mm 3 mps 758 mmHg 55%
11:00 +21°C° 0.1 mm 4 mps 758 mmHg 47%
12:00 +21°C° 0.1 mm 5 mps 757 mmHg 50%
13:00 +21°C° 0.1 mm 6 mps 757 mmHg 53%
14:00 +21°C° 0.1 mm 8 mps 756 mmHg 56%
15:00 +20°C° 0.8 mm 7 mps 756 mmHg 61%
16:00 +19°C° 0.8 mm 5 mps 757 mmHg 66%
17:00 +18°C° 0.8 mm 4 mps 757 mmHg 71%
18:00 +17°C° 0.2 mm 4 mps 758 mmHg 73%
19:00 +17°C° 0.2 mm 3 mps 758 mmHg 75%
20:00 +16°C° 0.2 mm 3 mps 759 mmHg 77%
21:00 +16°C° 0 mm 2 mps 759 mmHg 78%
22:00 +15°C° 0 mm 2 mps 759 mmHg 79%
23:00 +15°C° 0 mm 1 mps 759 mmHg 80%

Day after tomorrow, 27 September, Sunday

Time Temperature Precipitation Wind Pressure Humidity
00:00 +15°C° 0 mm 1 mps 759 mmHg 80%
01:00 +15°C° 0 mm 1 mps 759 mmHg 80%
02:00 +15°C° 0 mm 1 mps 759 mmHg 80%
03:00 +15°C° 0 mm 1 mps 759 mmHg 79%
04:00 +15°C° 0 mm 1 mps 759 mmHg 77%
05:00 +15°C° 0 mm 1 mps 759 mmHg 76%
06:00 +16°C° 0 mm 1 mps 759 mmHg 72%
07:00 +18°C° 0 mm 1 mps 760 mmHg 69%
08:00 +19°C° 0 mm 1 mps 760 mmHg 65%
09:00 +19°C° 0 mm 2 mps 760 mmHg 61%
10:00 +19°C° 0 mm 2 mps 760 mmHg 58%
11:00 +20°C° 0 mm 3 mps 760 mmHg 54%
12:00 +20°C° 0.1 mm 4 mps 760 mmHg 56%
13:00 +20°C° 0.1 mm 4 mps 759 mmHg 57%
14:00 +20°C° 0.1 mm 5 mps 759 mmHg 58%
15:00 +20°C° 0.1 mm 5 mps 759 mmHg 61%
16:00 +19°C° 0.1 mm 5 mps 759 mmHg 63%
17:00 +19°C° 0.1 mm 5 mps 759 mmHg 65%
18:00 +18°C° 0 mm 4 mps 759 mmHg 68%
19:00 +17°C° 0 mm 3 mps 760 mmHg 72%
20:00 +16°C° 0 mm 2 mps 760 mmHg 76%
21:00 +16°C° 0.1 mm 2 mps 760 mmHg 77%
22:00 +16°C° 0.1 mm 2 mps 760 mmHg 78%
23:00 +15°C° 0.1 mm 2 mps 760 mmHg 80%

28 September, Monday

Time Temperature Precipitation Wind Pressure Humidity
00:00 +15°C° 0.3 mm 2 mps 760 mmHg 80%
01:00 +15°C° 0.3 mm 2 mps 759 mmHg 81%
02:00 +15°C° 0.3 mm 2 mps 759 mmHg 81%
03:00 +15°C° 0.1 mm 2 mps 759 mmHg 83%
04:00 +14°C° 0.1 mm 2 mps 759 mmHg 84%
05:00 +14°C° 0.1 mm 2 mps 759 mmHg 85%
06:00 +15°C° 0.2 mm 2 mps 759 mmHg 83%
07:00 +16°C° 0.2 mm 2 mps 759 mmHg 81%
08:00 +17°C° 0.2 mm 2 mps 760 mmHg 78%
09:00 +18°C° 0.8 mm 3 mps 760 mmHg 76%
10:00 +19°C° 0.8 mm 4 mps 760 mmHg 73%
11:00 +19°C° 0.8 mm 5 mps 760 mmHg 71%
12:00 +19°C° 0.4 mm 5 mps 759 mmHg 69%
13:00 +19°C° 0.4 mm 5 mps 759 mmHg 66%
14:00 +20°C° 0.4 mm 6 mps 759 mmHg 64%
15:00 +19°C° 0 mm 5 mps 759 mmHg 63%
16:00 +17°C° 0 mm 5 mps 760 mmHg 62%
17:00 +17°C° 0 mm 5 mps 760 mmHg 61%
18:00 +17°C° 0 mm 4 mps 760 mmHg 63%
19:00 +16°C° 0 mm 3 mps 761 mmHg 66%
20:00 +15°C° 0 mm 2 mps 762 mmHg 68%
21:00 +15°C° 0 mm 2 mps 762 mmHg 69%
22:00 +15°C° 0 mm 2 mps 762 mmHg 70%
23:00 +15°C° 0 mm 2 mps 762 mmHg 71%

29 September, Tuesday

Time Temperature Precipitation Wind Pressure Humidity
00:00 +15°C° 0 mm 2 mps 762 mmHg 71%
01:00 +15°C° 0 mm 2 mps 762 mmHg 72%
02:00 +16°C° 0 mm 2 mps 761 mmHg 72%
03:00 +16°C° 0.1 mm 2 mps 761 mmHg 73%
04:00 +16°C° 0.1 mm 2 mps 761 mmHg 74%
05:00 +16°C° 0.1 mm 2 mps 761 mmHg 74%
06:00 +16°C° 0.1 mm 3 mps 761 mmHg 74%
07:00 +17°C° 0.1 mm 3 mps 762 mmHg 74%
08:00 +17°C° 0.1 mm 3 mps 762 mmHg 73%
09:00 +18°C° 0.1 mm 4 mps 762 mmHg 70%
10:00 +19°C° 0.1 mm 4 mps 762 mmHg 68%
11:00 +19°C° 0.1 mm 5 mps 762 mmHg 65%
12:00 +19°C° 0.1 mm 5 mps 761 mmHg 66%
13:00 +19°C° 0.1 mm 6 mps 761 mmHg 66%
14:00 +20°C° 0.1 mm 6 mps 761 mmHg 67%
15:00 +19°C° 0.1 mm 6 mps 761 mmHg 69%
16:00 +19°C° 0.1 mm 6 mps 761 mmHg 71%
17:00 +17°C° 0.1 mm 5 mps 761 mmHg 73%
18:00 +17°C° 0.1 mm 5 mps 762 mmHg 74%
19:00 +17°C° 0.1 mm 4 mps 762 mmHg 76%
20:00 +17°C° 0.1 mm 4 mps 762 mmHg 77%
21:00 +17°C° 0 mm 3 mps 762 mmHg 78%
22:00 +17°C° 0 mm 3 mps 762 mmHg 78%
23:00 +17°C° 0 mm 3 mps 762 mmHg 78%

30 September, Wednesday

Time Temperature Precipitation Wind Pressure Humidity
00:00 +17°C° 0 mm 3 mps 762 mmHg 80%
01:00 +16°C° 0 mm 3 mps 762 mmHg 81%
02:00 +16°C° 0 mm 3 mps 762 mmHg 82%
03:00 +16°C° 0 mm 2 mps 762 mmHg 81%
04:00 +17°C° 0 mm 2 mps 762 mmHg 80%
05:00 +17°C° 0 mm 2 mps 762 mmHg 78%
06:00 +17°C° 0 mm 2 mps 762 mmHg 76%
07:00 +18°C° 0 mm 2 mps 762 mmHg 73%
08:00 +18°C° 0 mm 2 mps 763 mmHg 71%
09:00 +19°C° 0 mm 3 mps 762 mmHg 69%
10:00 +19°C° 0 mm 3 mps 762 mmHg 67%
11:00 +20°C° 0 mm 3 mps 762 mmHg 65%
12:00 +20°C° 0 mm 4 mps 762 mmHg 64%
13:00 +20°C° 0 mm 4 mps 761 mmHg 64%
14:00 +21°C° 0 mm 4 mps 761 mmHg 63%
15:00 +20°C° 0 mm 4 mps 761 mmHg 64%
16:00 +20°C° 0 mm 4 mps 761 mmHg 65%
17:00 +19°C° 0 mm 4 mps 761 mmHg 66%
18:00 +18°C° 0 mm 3 mps 761 mmHg 70%
19:00 +17°C° 0 mm 3 mps 761 mmHg 73%
20:00 +17°C° 0 mm 2 mps 761 mmHg 77%
21:00 +17°C° 0 mm 3 mps 761 mmHg 78%
22:00 +16°C° 0 mm 3 mps 761 mmHg 79%
23:00 +16°C° 0 mm 3 mps 761 mmHg 80%
Show more